Printer-friendly version
Follow the MPC on Twitter Follow the MPC on Facebook The MPC blog
Minor Planet Center

MPEC 2007-F49 : 2007 FK3

The following Minor Planet Electronic Circular may be linked-to from your own Web pages, but must not otherwise be redistributed electronically.

A form allowing access to any MPEC is at the bottom of this page.


Read MPEC 2007-F48 Read MPEC 2007-F50


M.P.E.C. 2007-F49                                Issued 2007 Mar. 21, 11:59 UT

     The Minor Planet Electronic Circulars contain information on unusual
         minor planets and routine data on comets.  They are published
   on behalf of Commission 20 of the International Astronomical Union by the
          Minor Planet Center, Smithsonian Astrophysical Observatory,
                          Cambridge, MA 02138, U.S.A.

             Prepared using the Tamkin Foundation Computer Network

                              MPC@CFA.HARVARD.EDU
          URL http://cfa-www.harvard.edu/iau/mpc.html  ISSN 1523-6714

                                   2007 FK3

Observations:
     K07F03K* C2007 03 19.38448 13 39 54.79 +02 02 02.9          20.2 V EF049G96
     K07F03K  C2007 03 19.38881 13 39 54.54 +02 02 06.1          20.1 V EF049G96
     K07F03K  C2007 03 19.39322 13 39 54.25 +02 02 09.3          20.2 V EF049G96
     K07F03K  C2007 03 19.39752 13 39 54.03 +02 02 12.6          20.2 V EF049G96
     K07F03K  C2007 03 20.27946413 39 06.80 +02 13 01.0          20.3   EF049H55
     K07F03K  C2007 03 20.28942413 39 06.20 +02 13 08.3          20.0   EF049H55
     K07F03K  C2007 03 20.29812813 39 05.72 +02 13 14.6          20.3   EF049H55
     K07F03K  C2007 03 20.35909 13 39 02.41 +02 14 00.0          20.3 V EF049G96
     K07F03K  C2007 03 20.36683 13 39 01.98 +02 14 06.0          20.3 V EF049G96
     K07F03K  C2007 03 20.37460 13 39 01.51 +02 14 11.5          20.4 V EF049G96
     K07F03K  C2007 03 20.38237 13 39 01.04 +02 14 17.3          20.4 V EF049G96
     K07F03K  C2007 03 21.34700 13 38 07.69 +02 26 01.7          20.5 V EF049G96
     K07F03K  C2007 03 21.34838 13 38 07.60 +02 26 02.3          20.6 V EF049G96
     K07F03K  C2007 03 21.35132 13 38 07.41 +02 26 04.3          20.4 V EF049G96

Observer details:
G96 Mt. Lemmon Survey.  Observers S. M. Larson, A. R. Gibbs.  Measurers
    E. C. Beshore, E. J. Christensen, G. J. Garradd, A. R. Gibbs, A. D. Grauer,
    R. E. Hill, R. A. Kowalski, S. M. Larson, R. H. McNaught.  1.5-m reflector
    + CCD.
H55 Astronomical Research Observatory, Charleston.  Observer R. Holmes.
    0.81-m f/4.0 astrograph + CCD.

Orbital elements:
2007 FK3                                                 Earth MOID = 0.2871 AU
Epoch 2007 Mar. 1.0 TT = JDT 2454160.5                  MPC
M  25.64037              (2000.0)            P               Q
n   0.27051388     Peri.  327.04626     -0.36277253     -0.92902023
a   2.3677891      Node   144.07225     +0.87961889     -0.36721514
e   0.4670772      Incl.    7.13900     +0.30767953     -0.04554624
P   3.64           H   18.8           G   0.15
From 14 observations 2007 Mar. 19-21.

Ephemeris:
2007 FK3                 a,e,i = 2.37, 0.47, 7                   q = 1.2618
Date    TT    R. A. (2000) Decl.     Delta      r     Elong.  Phase     V
2007 03 21    13 38.45   +02 21.9    0.733    1.690   155.2    14.3    20.1
2007 03 31    13 28.24   +04 14.7    0.765    1.748   164.6     8.7    20.0
2007 04 10    13 17.53   +05 41.2    0.818    1.807   166.6     7.4    20.2
2007 04 20    13 08.16   +06 33.3    0.892    1.866   159.4    10.9    20.6
2007 04 30    13 01.40   +06 49.6    0.986    1.925   149.8    15.2    21.0
2007 05 10    12 57.77   +06 34.9    1.099    1.984   140.3    19.0    21.5
2007 05 20    12 57.23   +05 55.6    1.227    2.042   131.3    21.8    21.9

Timothy B. Spahr             (C) Copyright 2007 MPC           M.P.E.C. 2007-F49

Read MPEC 2007-F48 Read MPEC 2007-F50


MPEC number:

Enter an MPEC number in one of the following forms:

  • 1997-B01 (the full form)
  • J97B01 (the packed version of the full form)
  • B01 (the abbreviated form)

Valid HTML 4.01!